Date String (YYYY-MM-DD hh:mm:ss) UTC,Instrument flags,Ambient pressure (hPa),Sample flow (lpm),Bypass flow (lpm),Sample temperature (°C),Ambient temperature (°C),ASC tube jacket temperature (°C),LED temperature (°C),Box temperature (°C),Sample RH (%),Span deviation,Mass concentration (μg/m³),Mass concentration (μg/m³),Mass concentration (μg/m³)
DateTimeUTC,F1_M11,P_M11,Q1_M11,Q2_M11,T1_M11,T2_M11,T3_M11,T4_M11,T5_M11,U1_M11,ZSPAN_M11,X0_M11,X2_M11,X1_M11
2022-05-10 14:00:00,,0827.0,4.99,0.00,25.8,24.9,00.0,35.0,27.6,10.6,0000.0,0012.20,0004.32,0001.64
2022-05-10 14:01:00,,0827.1,5.01,0.00,25.8,24.9,00.0,34.9,27.6,11.0,0000.0,0012.24,0004.31,0001.63
2022-05-10 14:02:00,,0827.1,5.00,0.00,25.8,24.9,00.0,34.9,27.6,11.3,0000.0,0012.49,0004.32,0001.62
2022-05-10 14:03:00,,0827.1,5.00,0.00,25.8,24.9,00.0,34.9,27.6,11.8,0000.0,0012.60,0004.30,0001.62
2022-05-10 14:04:00,,0827.1,4.99,0.00,25.8,24.9,00.0,34.9,27.6,11.7,0000.0,0012.78,0004.29,0001.61
2022-05-10 14:05:00,,0827.1,5.01,0.00,25.8,24.8,00.0,34.9,27.6,11.4,0000.0,0013.03,0004.29,0001.62
2022-05-10 14:06:00,,0827.1,5.01,0.00,25.7,24.8,00.0,34.9,27.5,11.0,0000.0,0013.39,0004.22,0001.62
2022-05-10 14:07:00,,0827.1,4.99,0.00,25.7,24.8,00.0,34.9,27.5,10.9,0000.0,0013.06,0004.20,0001.60
2022-05-10 14:08:00,,0827.2,5.00,0.00,25.7,24.8,00.0,34.8,27.5,11.3,0000.0,0012.57,0004.11,0001.58
2022-05-10 14:09:00,,0827.1,5.00,0.00,25.7,24.8,00.0,34.8,27.5,11.5,0000.0,0012.54,0004.09,0001.57
2022-05-10 14:10:00,,0827.1,4.99,0.00,25.7,24.8,00.0,34.8,27.5,11.4,0000.0,0013.19,0004.08,0001.58
2022-05-10 14:11:00,,0827.1,5.01,0.00,25.7,24.7,00.0,34.8,27.5,11.4,0000.0,0013.22,0004.04,0001.56
2022-05-10 14:12:00,,0827.1,4.99,0.00,25.7,24.7,00.0,34.8,27.5,11.6,0000.0,0013.36,0004.03,0001.57
2022-05-10 14:13:00,,0827.2,5.00,0.00,25.7,24.7,00.0,34.8,27.5,11.0,0000.0,0013.09,0003.99,0001.57
2022-05-10 14:14:00,,0827.1,5.00,0.00,25.7,24.7,00.0,34.8,27.4,10.9,0000.0,0013.90,0003.97,0001.55
2022-05-10 14:15:00,,0827.2,5.00,0.00,25.6,24.7,00.0,34.7,27.4,11.2,0000.0,0013.80,0003.98,0001.52
2022-05-10 14:16:00,,0827.1,5.01,0.00,25.6,24.7,00.0,34.7,27.4,11.2,0000.0,0013.71,0004.00,0001.50
2022-05-10 14:17:00,,0827.2,5.00,0.00,25.6,24.7,00.0,34.7,27.4,10.9,0000.0,0013.42,0004.03,0001.49
2022-05-10 14:18:00,,0827.1,5.01,0.00,25.6,24.7,00.0,34.7,27.4,11.1,0000.0,0013.42,0004.01,0001.50
2022-05-10 14:19:00,,0827.4,4.99,0.00,25.6,24.7,00.0,34.7,27.3,11.4,0000.0,0013.85,0004.06,0001.53
2022-05-10 14:20:00,,0827.2,5.01,0.00,25.6,24.6,00.0,34.7,27.3,11.2,0000.0,0013.56,0004.07,0001.53
2022-05-10 14:21:00,,0827.2,4.99,0.00,25.6,24.6,00.0,34.7,27.3,11.1,0000.0,0012.66,0004.08,0001.55
2022-05-10 14:22:00,,0827.4,5.01,0.00,25.5,24.6,00.0,34.6,27.3,11.0,0000.0,0012.95,0004.14,0001.56
2022-05-10 14:23:00,,0827.3,4.99,0.00,25.5,24.6,00.0,34.6,27.3,10.7,0000.0,0013.15,0004.10,0001.55
2022-05-10 14:24:00,,0827.2,5.01,0.00,25.5,24.6,00.0,34.6,27.3,10.9,0000.0,0013.17,0004.09,0001.54
2022-05-10 14:25:00,,0827.5,5.00,0.00,25.5,24.6,00.0,34.6,27.3,10.7,0000.0,0012.54,0004.09,0001.56
2022-05-10 14:26:00,,0827.8,5.01,0.00,25.5,24.5,00.0,34.6,27.3,10.8,0000.0,0013.46,0004.09,0001.57
2022-05-10 14:27:00,,0827.6,4.99,0.00,25.5,24.5,00.0,34.6,27.3,10.9,0000.0,0013.44,0004.05,0001.56
2022-05-10 14:28:00,,0827.3,4.99,0.00,25.5,24.5,00.0,34.6,27.3,10.6,0000.0,0013.15,0004.03,0001.56
2022-05-10 14:29:00,,0827.3,5.01,0.00,25.5,24.6,00.0,34.6,27.3,10.8,0000.0,0012.99,0003.99,0001.55
2022-05-10 14:30:00,,0827.4,4.99,0.00,25.5,24.5,00.0,34.6,27.3,11.0,0000.0,0012.87,0004.00,0001.55
2022-05-10 14:31:00,,0827.4,5.01,0.00,25.5,24.6,00.0,34.5,27.3,11.1,0000.0,0012.82,0003.99,0001.53
2022-05-10 14:32:00,,0827.3,4.99,0.00,25.5,24.5,00.0,34.5,27.3,11.1,0000.0,0012.68,0003.95,0001.51
2022-05-10 14:33:00,,0827.2,5.01,0.00,25.4,24.5,00.0,34.5,27.2,11.3,0000.0,0012.75,0003.89,0001.51
2022-05-10 14:34:00,,0827.3,4.99,0.00,25.4,24.4,00.0,34.5,27.2,10.7,0000.0,0012.74,0003.96,0001.52
2022-05-10 14:35:00,,0827.4,5.00,0.00,25.4,24.5,00.0,34.5,27.2,10.8,0000.0,0012.37,0003.99,0001.53
2022-05-10 14:36:00,,0827.3,5.01,0.00,25.4,24.5,00.0,34.5,27.2,10.9,0000.0,0013.27,0004.06,0001.53
2022-05-10 14:37:00,,0827.4,4.99,0.00,25.4,24.5,00.0,34.5,27.2,10.9,0000.0,0013.24,0004.04,0001.53
2022-05-10 14:38:00,,0827.3,4.99,0.00,25.4,24.5,00.0,34.5,27.2,10.8,0000.0,0013.70,0004.00,0001.52
2022-05-10 14:39:00,,0827.3,5.01,0.00,25.3,24.5,00.0,34.5,27.2,11.0,0000.0,0014.04,0003.96,0001.53
2022-05-10 14:40:00,,0827.3,5.00,0.00,25.3,24.5,00.0,34.4,27.2,11.0,0000.0,0014.13,0004.02,0001.52
2022-05-10 14:41:00,,0827.3,4.99,0.00,25.3,24.5,00.0,34.4,27.2,11.2,0000.0,0014.22,0004.03,0001.51
2022-05-10 14:42:00,,0827.4,5.01,0.00,25.3,24.5,00.0,34.4,27.1,11.1,0000.0,0015.07,0004.08,0001.53
2022-05-10 14:43:00,,0827.4,4.99,0.00,25.3,24.4,00.0,34.4,27.1,11.1,0000.0,0015.46,0004.07,0001.53
2022-05-10 14:44:00,,0827.4,5.01,0.00,25.3,24.4,00.0,34.4,27.1,11.2,0000.0,0015.20,0004.11,0001.52
2022-05-10 14:45:00,,0827.4,4.99,0.00,25.3,24.3,00.0,34.4,27.1,11.3,0000.0,0015.05,0004.17,0001.55
2022-05-10 14:46:00,,0827.4,5.01,0.00,25.3,24.3,00.0,34.4,27.1,11.1,0000.0,0015.21,0004.23,0001.58
2022-05-10 14:47:00,,0827.4,4.99,0.00,25.3,24.3,00.0,34.4,27.1,11.2,0000.0,0014.12,0004.20,0001.59
2022-05-10 14:48:00,,0827.4,5.01,0.00,25.3,24.3,00.0,34.4,27.0,11.3,0000.0,0013.10,0004.20,0001.59
2022-05-10 14:49:00,,0827.4,4.99,0.00,25.3,24.4,00.0,34.3,27.1,11.4,0000.0,0012.64,0004.25,0001.62
2022-05-10 14:50:00,,0827.4,5.00,0.00,25.3,24.3,00.0,34.3,27.1,11.3,0000.0,0013.13,0004.26,0001.64
2022-05-10 14:51:00,,0827.4,5.01,0.00,25.2,24.3,00.0,34.3,27.1,11.2,0000.0,0013.72,0004.23,0001.64
2022-05-10 14:52:00,,0827.4,4.99,0.00,25.2,24.3,00.0,34.3,27.1,11.4,0000.0,0014.13,0004.25,0001.66
2022-05-10 14:53:00,,0827.4,5.01,0.00,25.2,24.3,00.0,34.3,27.1,11.7,0000.0,0013.81,0004.25,0001.66
2022-05-10 14:54:00,,0827.4,5.00,0.00,25.2,24.3,00.0,34.3,27.1,11.5,0000.0,0013.53,0004.30,0001.67
2022-05-10 14:55:00,,0827.4,5.00,0.00,25.2,24.3,00.0,34.3,27.1,11.6,0000.0,0013.54,0004.34,0001.70
2022-05-10 14:56:00,,0827.4,5.01,0.00,25.2,24.4,00.0,34.3,27.1,11.5,0000.0,0013.76,0004.35,0001.70
2022-05-10 14:57:00,,0827.4,4.99,0.00,25.2,24.4,00.0,34.3,27.1,11.3,0000.0,0013.92,0004.38,0001.68
2022-05-10 14:58:00,,0827.4,4.99,0.00,25.2,24.4,00.0,34.3,27.1,11.1,0000.0,0013.67,0004.35,0001.67
2022-05-10 14:59:00,,0827.4,5.01,0.00,25.2,24.4,00.0,34.3,27.1,11.5,0000.0,0014.42,0004.37,0001.68
